Time,TemperatureF,DewpointF,PressureIn,WindDirection,WindDirectionDegrees,WindSpeedMPH,WindSpeedGustMPH,Humidity,HourlyPrecipIn,Conditions,Clouds,dailyrainin,SoftwareType,DateUTC
2013-02-17 00:00:00,34.0,2.7,30.29,NNW,337,0.0,0.0,26,0.00,,---,0.00,VWS V14.01,2013-02-17 07:00:00,
2013-02-17 00:10:00,34.0,3.5,30.29,West,270,0.0,0.0,27,0.00,,---,0.00,VWS V14.01,2013-02-17 07:10:00,
2013-02-17 00:20:00,34.0,2.7,30.29,SSW,202,0.0,0.0,26,0.00,,---,0.00,VWS V14.01,2013-02-17 07:20:00,
2013-02-17 00:30:00,32.0,2.6,30.30,SE,135,0.0,0.0,28,0.00,,---,0.00,VWS V14.01,2013-02-17 07:30:00,
2013-02-17 00:40:00,33.0,2.7,30.31,North,360,0.0,0.0,27,0.00,,---,0.00,VWS V14.01,2013-02-17 07:40:00,
2013-02-17 01:00:00,35.0,3.6,30.30,ESE,112,0.0,0.0,26,0.00,,---,0.00,VWS V14.01,2013-02-17 08:00:00,
2013-02-17 01:10:00,34.0,2.7,30.29,NNE,22,0.0,0.0,26,0.00,,---,0.00,VWS V14.01,2013-02-17 08:10:00,
2013-02-17 01:20:00,33.0,1.9,30.30,ENE,67,0.0,0.0,26,0.00,,---,0.00,VWS V14.01,2013-02-17 08:20:00,
2013-02-17 01:30:00,34.0,2.7,30.29,NE,45,0.0,0.0,26,0.00,,---,0.00,VWS V14.01,2013-02-17 08:30:00,
2013-02-17 01:40:00,34.0,2.7,30.29,East,90,0.0,0.0,26,0.00,,---,0.00,VWS V14.01,2013-02-17 08:40:00,
2013-02-17 01:50:00,35.0,3.6,30.29,East,90,0.0,0.0,26,0.00,,---,0.00,VWS V14.01,2013-02-17 08:50:00,
2013-02-17 02:00:00,34.0,3.5,30.29,East,90,0.0,0.0,27,0.00,,---,0.00,VWS V14.01,2013-02-17 09:00:00,
2013-02-17 02:10:00,34.0,3.5,30.29,East,90,0.0,0.0,27,0.00,,---,0.00,VWS V14.01,2013-02-17 09:10:00,
2013-02-17 02:20:00,32.0,4.1,30.29,East,90,0.0,0.0,30,0.00,,---,0.00,VWS V14.01,2013-02-17 09:20:00,
2013-02-17 02:30:00,30.0,3.0,30.29,East,90,0.0,0.0,31,0.00,,---,0.00,VWS V14.01,2013-02-17 09:30:00,
2013-02-17 02:40:00,31.0,3.2,30.29,East,90,0.0,0.0,30,0.00,,---,0.00,VWS V14.01,2013-02-17 09:40:00,
2013-02-17 02:50:00,31.0,3.2,30.29,East,90,0.0,0.0,30,0.00,,---,0.00,VWS V14.01,2013-02-17 09:50:00,
2013-02-17 03:00:00,31.0,3.2,30.29,NW,315,0.0,0.0,30,0.00,,---,0.00,VWS V14.01,2013-02-17 10:00:00,
2013-02-17 03:10:00,30.0,3.0,30.28,NW,315,0.0,0.0,31,0.00,,---,0.00,VWS V14.01,2013-02-17 10:10:00,
2013-02-17 03:20:00,30.0,3.7,30.27,NW,315,0.0,0.0,32,0.00,,---,0.00,VWS V14.01,2013-02-17 10:20:00,
2013-02-17 03:30:00,29.0,2.8,30.28,NW,315,0.0,0.0,32,0.00,,---,0.00,VWS V14.01,2013-02-17 10:30:00,
2013-02-17 03:40:00,28.0,2.6,30.27,NW,315,0.0,0.0,33,0.00,,---,0.00,VWS V14.01,2013-02-17 10:40:00,
2013-02-17 03:50:00,29.0,2.8,30.27,NW,315,0.0,0.0,32,0.00,,---,0.00,VWS V14.01,2013-02-17 10:50:00,
2013-02-17 04:00:00,29.0,2.8,30.27,NW,315,0.0,0.0,32,0.00,,---,0.00,VWS V14.01,2013-02-17 11:00:00,
2013-02-17 04:10:00,28.0,2.6,30.27,West,270,0.0,0.0,33,0.00,,---,0.00,VWS V14.01,2013-02-17 11:10:00,
2013-02-17 04:20:00,27.0,2.4,30.27,North,360,0.0,0.0,34,0.00,,---,0.00,VWS V14.01,2013-02-17 11:20:00,
2013-02-17 04:30:00,27.0,1.7,30.27,West,270,0.0,0.0,33,0.00,,---,0.00,VWS V14.01,2013-02-17 11:30:00,
2013-02-17 04:40:00,27.0,2.4,30.27,West,270,0.0,0.0,34,0.00,,---,0.00,VWS V14.01,2013-02-17 11:40:00,
2013-02-17 04:50:00,27.0,2.4,30.27,West,270,0.0,0.0,34,0.00,,---,0.00,VWS V14.01,2013-02-17 11:50:00,
2013-02-17 05:00:00,27.0,2.4,30.26,West,270,0.0,0.0,34,0.00,,---,0.00,VWS V14.01,2013-02-17 12:00:00,
2013-02-17 05:10:00,27.0,2.4,30.26,West,270,0.0,0.0,34,0.00,,---,0.00,VWS V14.01,2013-02-17 12:10:00,
2013-02-17 05:20:00,28.0,2.6,30.26,WNW,292,0.0,0.0,33,0.00,,---,0.00,VWS V14.01,2013-02-17 12:20:00,
2013-02-17 05:30:00,28.0,2.6,30.26,WNW,292,0.0,0.0,33,0.00,,---,0.00,VWS V14.01,2013-02-17 12:30:00,
2013-02-17 05:40:00,28.0,2.6,30.26,North,360,0.0,0.0,33,0.00,,---,0.00,VWS V14.01,2013-02-17 12:40:00,
2013-02-17 05:50:00,27.0,3.0,30.26,NNW,337,0.0,0.0,35,0.00,,---,0.00,VWS V14.01,2013-02-17 12:50:00,
2013-02-17 06:00:00,27.0,2.4,30.26,WNW,292,0.0,0.0,34,0.00,,---,0.00,VWS V14.01,2013-02-17 13:00:00,
2013-02-17 06:10:00,27.0,3.0,30.26,NNW,337,0.0,0.0,35,0.00,,---,0.00,VWS V14.01,2013-02-17 13:10:00,
2013-02-17 06:20:00,28.0,2.6,30.24,WNW,292,0.0,0.0,33,0.00,,---,0.00,VWS V14.01,2013-02-17 13:20:00,
2013-02-17 06:30:00,24.0,0.9,30.26,West,270,0.0,0.0,36,0.00,,---,0.00,VWS V14.01,2013-02-17 13:30:00,
2013-02-17 06:40:00,21.0,1.0,30.26,West,270,0.0,0.0,41,0.00,,---,0.00,VWS V14.01,2013-02-17 13:40:00,
2013-02-17 06:50:00,21.0,1.0,30.25,WNW,292,0.0,0.0,41,0.00,,---,0.00,VWS V14.01,2013-02-17 13:50:00,
2013-02-17 07:00:00,22.0,1.4,30.26,WNW,292,0.0,0.0,40,0.00,,---,0.00,VWS V14.01,2013-02-17 14:00:00,
2013-02-17 07:10:00,23.0,1.8,30.26,WNW,292,0.0,0.0,39,0.00,,---,0.00,VWS V14.01,2013-02-17 14:10:00,
2013-02-17 07:20:00,24.0,2.1,30.26,WNW,292,0.0,0.0,38,0.00,,---,0.00,VWS V14.01,2013-02-17 14:20:00,
2013-02-17 07:30:00,27.0,3.6,30.24,NNW,337,0.0,0.0,36,0.00,,---,0.00,VWS V14.01,2013-02-17 14:30:00,
2013-02-17 07:40:00,29.0,3.5,30.23,NW,315,0.0,0.0,33,0.00,,---,0.00,VWS V14.01,2013-02-17 14:40:00,
2013-02-17 07:50:00,30.0,3.7,30.22,WNW,292,0.0,0.0,32,0.00,,---,0.00,VWS V14.01,2013-02-17 14:50:00,
2013-02-17 08:00:00,31.0,4.6,30.21,WNW,292,0.0,0.0,32,0.00,,---,0.00,VWS V14.01,2013-02-17 15:00:00,
2013-02-17 08:10:00,35.0,5.2,30.20,WNW,292,0.0,0.0,28,0.00,,---,0.00,VWS V14.01,2013-02-17 15:10:00,
2013-02-17 08:20:00,38.0,7.0,30.19,NE,45,0.0,0.0,27,0.00,,---,0.00,VWS V14.01,2013-02-17 15:20:00,
2013-02-17 08:30:00,39.0,5.3,30.18,ENE,67,0.0,0.0,24,0.00,,---,0.00,VWS V14.01,2013-02-17 15:30:00,
2013-02-17 08:40:00,38.0,4.4,30.16,East,90,0.0,0.0,24,0.00,,---,0.00,VWS V14.01,2013-02-17 15:40:00,
2013-02-17 08:50:00,37.0,5.3,30.16,ENE,67,0.0,0.0,26,0.00,,---,0.00,VWS V14.01,2013-02-17 15:50:00,
2013-02-17 09:00:00,37.0,5.3,30.15,North,360,0.0,7.0,26,0.00,,---,0.00,VWS V14.01,2013-02-17 16:00:00,
2013-02-17 09:10:00,38.0,5.3,30.15,East,90,0.0,5.0,25,0.00,,---,0.00,VWS V14.01,2013-02-17 16:10:00,
2013-02-17 09:20:00,38.0,4.4,30.15,ENE,67,0.0,7.0,24,0.00,,---,0.00,VWS V14.01,2013-02-17 16:20:00,
2013-02-17 09:30:00,38.0,4.4,30.14,ENE,67,7.0,7.0,24,0.00,,---,0.00,VWS V14.01,2013-02-17 16:30:00,
2013-02-17 09:40:00,39.0,5.3,30.14,NE,45,0.0,7.0,24,0.00,,---,0.00,VWS V14.01,2013-02-17 16:40:00,
2013-02-17 09:50:00,40.0,5.2,30.13,NE,45,1.0,8.0,23,0.00,,---,0.00,VWS V14.01,2013-02-17 16:50:00,
2013-02-17 10:00:00,42.0,5.9,30.12,East,90,0.0,5.0,22,0.00,,---,0.00,VWS V14.01,2013-02-17 17:00:00,
2013-02-17 10:10:00,44.0,8.6,30.11,NNE,22,0.0,0.0,23,0.00,,---,0.00,VWS V14.01,2013-02-17 17:10:00,
2013-02-17 10:20:00,43.0,4.7,30.11,ESE,112,0.0,6.0,20,0.00,,---,0.00,VWS V14.01,2013-02-17 17:20:00,
2013-02-17 10:30:00,45.0,7.4,30.11,ESE,112,0.0,0.0,21,0.00,,---,0.00,VWS V14.01,2013-02-17 17:30:00,
2013-02-17 10:40:00,47.0,5.7,30.10,East,90,0.0,0.0,18,0.00,,---,0.00,VWS V14.01,2013-02-17 17:40:00,
2013-02-17 10:50:00,47.0,5.7,30.08,ESE,112,2.0,5.0,18,0.00,,---,0.00,VWS V14.01,2013-02-17 17:50:00,
2013-02-17 11:00:00,47.0,5.7,30.08,ESE,112,0.0,4.0,18,0.00,,---,0.00,VWS V14.01,2013-02-17 18:00:00,
2013-02-17 11:10:00,47.0,5.7,30.07,ESE,112,4.0,6.0,18,0.00,,---,0.00,VWS V14.01,2013-02-17 18:10:00,
2013-02-17 11:20:00,48.0,6.5,30.07,ESE,112,7.0,10.0,18,0.00,,---,0.00,VWS V14.01,2013-02-17 18:20:00,
2013-02-17 11:30:00,48.0,5.3,30.06,SE,135,3.0,9.0,17,0.00,,---,0.00,VWS V14.01,2013-02-17 18:30:00,
2013-02-17 11:40:00,48.0,5.3,30.06,South,180,4.0,9.0,17,0.00,,---,0.00,VWS V14.01,2013-02-17 18:40:00,
2013-02-17 11:50:00,49.0,6.1,30.04,ESE,112,2.0,10.0,17,0.00,,---,0.00,VWS V14.01,2013-02-17 18:50:00,
2013-02-17 12:00:00,49.0,6.1,30.04,SSE,157,0.0,9.0,17,0.00,,---,0.00,VWS V14.01,2013-02-17 19:00:00,
2013-02-17 12:10:00,49.0,4.8,30.03,SSE,157,8.0,11.0,16,0.00,,---,0.00,VWS V14.01,2013-02-17 19:10:00,
2013-02-17 12:20:00,50.0,5.6,30.04,South,180,9.0,10.0,16,0.00,,---,0.00,VWS V14.01,2013-02-17 19:20:00,
2013-02-17 12:30:00,51.0,5.0,30.03,ESE,112,6.0,10.0,15,0.00,,---,0.00,VWS V14.01,2013-02-17 19:30:00,
2013-02-17 12:40:00,52.0,5.8,30.01,ESE,112,1.0,9.0,15,0.00,,---,0.00,VWS V14.01,2013-02-17 19:40:00,
2013-02-17 12:50:00,51.0,3.5,30.00,SE,135,0.0,10.0,14,0.00,,---,0.00,VWS V14.01,2013-02-17 19:50:00,
2013-02-17 13:00:00,53.0,5.1,29.99,SE,135,2.0,10.0,14,0.00,,---,0.00,VWS V14.01,2013-02-17 20:00:00,
2013-02-17 13:10:00,53.0,6.6,29.98,SE,135,3.0,12.0,15,0.00,,---,0.00,VWS V14.01,2013-02-17 20:10:00,
2013-02-17 13:20:00,53.0,6.6,29.98,SW,225,0.0,11.0,15,0.00,,---,0.00,VWS V14.01,2013-02-17 20:20:00,
2013-02-17 13:30:00,54.0,5.9,29.97,SSE,157,0.0,10.0,14,0.00,,---,0.00,VWS V14.01,2013-02-17 20:30:00,
2013-02-17 13:40:00,54.0,5.9,29.96,SE,135,5.0,13.0,14,0.00,,---,0.00,VWS V14.01,2013-02-17 20:40:00,
2013-02-17 13:50:00,54.0,4.3,29.95,ESE,112,10.0,12.0,13,0.00,,---,0.00,VWS V14.01,2013-02-17 20:50:00,
2013-02-17 14:00:00,54.0,4.3,29.94,ESE,112,7.0,12.0,13,0.00,,---,0.00,VWS V14.01,2013-02-17 21:00:00,
2013-02-17 14:10:00,54.0,4.3,29.93,ESE,112,7.0,11.0,13,0.00,,---,0.00,VWS V14.01,2013-02-17 21:10:00,
2013-02-17 14:20:00,54.0,2.5,29.92,SE,135,1.0,13.0,12,0.00,,---,0.00,VWS V14.01,2013-02-17 21:20:00,
2013-02-17 14:30:00,55.0,3.3,29.92,SE,135,0.0,12.0,12,0.00,,---,0.00,VWS V14.01,2013-02-17 21:30:00,
2013-02-17 14:40:00,56.0,4.1,29.92,South,180,0.0,11.0,12,0.00,,---,0.00,VWS V14.01,2013-02-17 21:40:00,
2013-02-17 14:50:00,56.0,4.1,29.90,South,180,10.0,14.0,12,0.00,,---,0.00,VWS V14.01,2013-02-17 21:50:00,
2013-02-17 15:00:00,56.0,4.1,29.90,SE,135,5.0,14.0,12,0.00,,---,0.00,VWS V14.01,2013-02-17 22:00:00,
2013-02-17 15:10:00,57.0,4.9,29.90,SE,135,4.0,9.0,12,0.00,,---,0.00,VWS V14.01,2013-02-17 22:10:00,
2013-02-17 15:20:00,57.0,3.0,29.89,SSE,157,0.0,11.0,11,0.00,,---,0.00,VWS V14.01,2013-02-17 22:20:00,
2013-02-17 15:30:00,57.0,3.0,29.89,SSE,157,9.0,11.0,11,0.00,,---,0.00,VWS V14.01,2013-02-17 22:30:00,
2013-02-17 15:40:00,57.0,1.0,29.88,SE,135,0.0,11.0,10,0.00,,---,0.00,VWS V14.01,2013-02-17 22:40:00,
2013-02-17 15:50:00,57.0,3.0,29.88,ESE,112,6.0,13.0,11,0.00,,---,0.00,VWS V14.01,2013-02-17 22:50:00,
2013-02-17 16:00:00,57.0,3.0,29.87,SE,135,0.0,12.0,11,0.00,,---,0.00,VWS V14.01,2013-02-17 23:00:00,
2013-02-17 16:10:00,60.0,3.3,29.87,SE,135,4.0,8.0,10,0.00,,---,0.00,VWS V14.01,2013-02-17 23:10:00,
2013-02-17 16:20:00,59.0,2.5,29.86,South,180,5.0,13.0,10,0.00,,---,0.00,VWS V14.01,2013-02-17 23:20:00,
2013-02-17 16:30:00,59.0,2.5,29.85,South,180,7.0,11.0,10,0.00,,---,0.00,VWS V14.01,2013-02-17 23:30:00,
2013-02-17 16:40:00,59.0,2.5,29.85,SSE,157,0.0,14.0,10,0.00,,---,0.00,VWS V14.01,2013-02-17 23:40:00,
2013-02-17 16:50:00,58.0,1.8,29.86,South,180,0.0,8.0,10,0.00,,---,0.00,VWS V14.01,2013-02-17 23:50:00,
2013-02-17 17:00:00,57.0,3.0,29.86,SSE,157,0.0,9.0,11,0.00,,---,0.00,VWS V14.01,2013-02-18 00:00:00,
2013-02-17 17:10:00,57.0,3.0,29.85,SSW,202,0.0,7.0,11,0.00,,---,0.00,VWS V14.01,2013-02-18 00:10:00,
2013-02-17 17:20:00,57.0,3.0,29.86,SE,135,0.0,9.0,11,0.00,,---,0.00,VWS V14.01,2013-02-18 00:20:00,
2013-02-17 17:30:00,56.0,2.2,29.86,SSE,157,8.0,8.0,11,0.00,,---,0.00,VWS V14.01,2013-02-18 00:30:00,
2013-02-17 17:40:00,55.0,3.3,29.86,SSE,157,0.0,8.0,12,0.00,,---,0.00,VWS V14.01,2013-02-18 00:40:00,
2013-02-17 17:50:00,54.0,2.5,29.86,South,180,0.0,7.0,12,0.00,,---,0.00,VWS V14.01,2013-02-18 00:50:00,
2013-02-17 18:00:00,52.0,2.7,29.88,South,180,0.0,0.0,13,0.00,,---,0.00,VWS V14.01,2013-02-18 01:00:00,
2013-02-17 18:10:00,51.0,1.9,29.88,WSW,247,0.0,0.0,13,0.00,,---,0.00,VWS V14.01,2013-02-18 01:10:00,
2013-02-17 18:20:00,50.0,1.1,29.89,WSW,247,0.0,0.0,13,0.00,,---,0.00,VWS V14.01,2013-02-18 01:20:00,
2013-02-17 18:30:00,49.0,1.9,29.90,WSW,247,0.0,0.0,14,0.00,,---,0.00,VWS V14.01,2013-02-18 01:30:00,
2013-02-17 18:40:00,50.0,1.1,29.91,WSW,247,4.0,7.0,13,0.00,,---,0.00,VWS V14.01,2013-02-18 01:40:00,
2013-02-17 18:50:00,51.0,1.9,29.91,WSW,247,10.0,11.0,13,0.00,,---,0.00,VWS V14.01,2013-02-18 01:50:00,
2013-02-17 19:00:00,50.0,1.1,29.91,WSW,247,7.0,13.0,13,0.00,,---,0.00,VWS V14.01,2013-02-18 02:00:00,
2013-02-17 19:10:00,49.0,1.9,29.90,WSW,247,8.0,10.0,14,0.00,,---,0.00,VWS V14.01,2013-02-18 02:10:00,
2013-02-17 19:20:00,47.0,1.8,29.91,West,270,7.0,10.0,15,0.00,,---,0.00,VWS V14.01,2013-02-18 02:20:00,
2013-02-17 19:30:00,47.0,3.2,29.91,South,180,9.0,15.0,16,0.00,,---,0.00,VWS V14.01,2013-02-18 02:30:00,
2013-02-17 19:40:00,48.0,5.3,29.91,WSW,247,8.0,14.0,17,0.00,,---,0.00,VWS V14.01,2013-02-18 02:40:00,
2013-02-17 19:50:00,49.0,6.1,29.91,WSW,247,12.0,20.0,17,0.00,,---,0.00,VWS V14.01,2013-02-18 02:50:00,
2013-02-17 20:00:00,50.0,4.2,29.92,WSW,247,10.0,20.0,15,0.00,,---,0.00,VWS V14.01,2013-02-18 03:00:00,
2013-02-17 20:10:00,50.0,4.2,29.91,WSW,247,8.0,18.0,15,0.00,,---,0.00,VWS V14.01,2013-02-18 03:10:00,
2013-02-17 20:20:00,49.0,3.4,29.91,SW,225,16.0,18.0,15,0.00,,---,0.00,VWS V14.01,2013-02-18 03:20:00,
2013-02-17 20:30:00,48.0,4.0,29.92,SW,225,15.0,19.0,16,0.00,,---,0.00,VWS V14.01,2013-02-18 03:30:00,
2013-02-17 20:40:00,48.0,4.0,29.92,SW,225,11.0,19.0,16,0.00,,---,0.00,VWS V14.01,2013-02-18 03:40:00,
2013-02-17 20:50:00,48.0,5.3,29.92,SW,225,13.0,21.0,17,0.00,,---,0.00,VWS V14.01,2013-02-18 03:50:00,
2013-02-17 21:00:00,48.0,5.3,29.93,SW,225,5.0,18.0,17,0.00,,---,0.00,VWS V14.01,2013-02-18 04:00:00,
2013-02-17 21:10:00,47.0,5.7,29.93,West,270,10.0,17.0,18,0.00,,---,0.00,VWS V14.01,2013-02-18 04:10:00,
2013-02-17 21:20:00,48.0,6.5,29.93,WSW,247,9.0,20.0,18,0.00,,---,0.00,VWS V14.01,2013-02-18 04:20:00,
2013-02-17 21:30:00,47.0,6.9,29.93,WSW,247,14.0,19.0,19,0.00,,---,0.00,VWS V14.01,2013-02-18 04:30:00,
2013-02-17 21:40:00,47.0,6.9,29.94,WSW,247,13.0,20.0,19,0.00,,---,0.00,VWS V14.01,2013-02-18 04:40:00,
2013-02-17 21:50:00,46.0,7.2,29.94,WSW,247,18.0,19.0,20,0.00,,---,0.00,VWS V14.01,2013-02-18 04:50:00,
2013-02-17 22:00:00,46.0,7.2,29.93,WSW,247,14.0,21.0,20,0.00,,---,0.00,VWS V14.01,2013-02-18 05:00:00,
2013-02-17 22:10:00,46.0,7.2,29.94,WSW,247,10.0,19.0,20,0.00,,---,0.00,VWS V14.01,2013-02-18 05:10:00,
2013-02-17 22:20:00,46.0,7.2,29.94,West,270,10.0,19.0,20,0.00,,---,0.00,VWS V14.01,2013-02-18 05:20:00,
2013-02-17 22:30:00,45.0,7.4,29.96,WSW,247,18.0,18.0,21,0.00,,---,0.00,VWS V14.01,2013-02-18 05:30:00,
2013-02-17 22:40:00,45.0,8.5,29.96,WSW,247,11.0,20.0,22,0.00,,---,0.00,VWS V14.01,2013-02-18 05:40:00,
2013-02-17 22:50:00,45.0,8.5,29.96,West,270,11.0,18.0,22,0.00,,---,0.00,VWS V14.01,2013-02-18 05:50:00,
2013-02-17 23:00:00,44.0,7.6,29.96,WSW,247,10.0,22.0,22,0.00,,---,0.00,VWS V14.01,2013-02-18 06:00:00,
2013-02-17 23:10:00,44.0,7.6,29.96,WSW,247,13.0,21.0,22,0.00,,---,0.00,VWS V14.01,2013-02-18 06:10:00,
2013-02-17 23:20:00,43.0,6.8,29.97,WSW,247,10.0,19.0,22,0.00,,---,0.00,VWS V14.01,2013-02-18 06:20:00,
2013-02-17 23:30:00,43.0,6.8,29.97,WSW,247,4.0,16.0,22,0.00,,---,0.00,VWS V14.01,2013-02-18 06:30:00,
2013-02-17 23:40:00,42.0,6.9,29.98,SW,225,10.0,18.0,23,0.00,,---,0.00,VWS V14.01,2013-02-18 06:40:00,
2013-02-17 23:50:00,41.0,7.0,29.98,West,270,8.0,14.0,24,0.00,,---,0.00,VWS V14.01,2013-02-18 06:50:00,